EHI
0 0 0 0 0 0 0 0 0 0 0 0 0 0 0 0 0 0 0 0 0 0 0 0 0 0 0 0 0 0 0 0 0 0 0 0 0 0 0 0 0 0 0 0
0 0 0 0 0 0 0 0 0 0 0 0 0 0 0 0 0 0 0 0 0 0 0 0 0 0 0 0 0 0 0 0 0 0 0 0 0 0 0 0 0 0 0 0
0 0 0 0 0 0 0 0 0 0 0 0 0 0 0 0 0 0 0 0 0 0 0 0 0 0 0 0 0 0 0 0 0 0 0 0 0 0 0 0 0 0 0 0
0 0 0 0 0 0 0 0 0 0 0 0 0 0 0 0 0 0 0 0 0 0 0 0 0 0 0 0 0 0 0 0 0 0 0 0 0 0 0 0 0 0 0 0
0 0 0 0 0 0 0 0 0 0 0 0 0 0 0 0 0 0 0 0 0 0 0 0 0 0 0 0 0 0 0 0 0 0 0 0 0 0 0 0 0 0 0 0
0 0 0 0 0 0 0 0 0 0 0 0 0 0 0 0 0 0 0 0 0 0 0 0 0 0 0 0 0 0 0 0 0 0 0 0 0 0 0 0 0 0 0 0
0 0 0 0 0 0 0 0 0 0 0 0 0 0 0 0 0 0 0 0 0 0 0 0 0 0 0 0 0 0 0 0 0 0 0 0 0 0 0 0 0 0 0 0
0 0 0 0 0 0 0 0 0 0 0 0 0 0 0 0 0 0 0 0 0 0 0 0 0 0 0 0 0 0 0 0 0 0 0 0 0 0 0 0 0 0 0 0
0 0 0 0 0 0 0 0 0 0 0 0 0 0 0 0 0 0 0 0 0 0 0 0 0 0 0 0 0 0 0 0 0 0 0 0 0 0 0 0 0 0 0 0
0 0 0 0 0 0 0 0 0 0 0 0 0 0 0 0 0 0 0 0 0 0 0 0 0 0 0 0 0 0 0 0 0 0 0 0 0 0 0 0 0 0 0 0
0 0 0 0 0 0 0 0 0 0 0 0 0 0 0 0 0 0 0 0 0 0 0 0 0 0 0 0 0 0 0 0 0 0 0 0 0 0 0 0 0 0 0 0
0 0 0 0 0 0 0 0 0 0 0 0 0 0 0 0 0 0 0 0 0 0 0 0 0 0 0 0 0 0 0 0 0 0 0 0 0 0 0 0 0 0 0 0
0 0 0 0 0 0 0 0 0 0 0 0 0 0 0 0 0 0 0 0 0 0 0 0 0 0 0 0 0 0 0 0 0 0 0 0 0 0 0 0 0 0 0 0
0 0 0 0 0 0 0 0 0 0 0 0 0 0 0 0 0 0 0 0 0 0 0 0 0 0 0 0 0 0 0 0 0 0 0 0 0 0 0 0 0 0 0 0
0 0 0 0 0 0 0 0 0 0 0 0 0 0 0 0 0 0 0 0 0 0 0 0 0 0 0 0 0 0 0 0 0 0 0 0 0 0 0 0 0 0 0 0
0 0 0 0 0 0 0 0 0 0 0 0 0 0 0 0 0 0 0 0 0 0 0 0 0 0 0 0 0 0 0 0 0 0 0 0 0 0 0 0 0 0 0 0
0 0 0 0 0 0 0 0 0 0 0 0 0 0 0 0 0 0 0 0 0 0 0 0 0 0 0 0 0 0 0 0 0 0 0 0 0 0 0 0 0 0 0 0
0 0 0 0 0 0 0 0 0 0 0 0 0 0 0 0 0 0 0 0 0 0 0 0 0 0 0 0 0 0 0 0 0 0 0 0 0 0 0 0 0 0 0 0
0 0 0 0 0 0 0 0 0 0 0 0 0 0 0 0 0 0 0 0 0 0 0 0 0 0 0 0 0 0 0 0 0 0 0 0 0 0 0 0 0 0 0 0
0 0 0 0 0 0 0 0 0 0 0 0 0 0 0 0 0 0 0 0 0 0 0 0 0 0 0 0 0 0 0 0 0 0 0 0 0 0 0 0 0 0 0 0
0 0 0 0 0 0 0 0 0 0 0 0 0 0 0 0 0 0 0 0 0 0 0 0 0 0 0 0 0 0 0 0 0 0 0 0 0 0 0 0 0 0 0 0
0 0 0 0 0 0 0 0 0 0 0 0 0 0 0 0 0 0 0 0 0 0 0 0 0 0 0 0 0 0 0 0 0 0 0 0 0 0 0 0 0 0 0 0
0 0 0 0 0 0 0 0 0 0 0 0 0 0 0 0 0 0 0 0 0 0 0 0 0 0 0 0 0 0 0 0 0 0 0 0 0 0 0 0 0 0 0 0
0 0 0 0 0 0 0 0 0 0 0 0 0 0 0 0 0 0 0 0 0 0 0 0 0 0 0 0 0 0 0 0 0 0 0 0 0 0 0 0 0 0 0 0
0 0 0 0 0 0 0 0 0 0 0 0 0 0 0 0 0 0 0 0 0 0 0 0 0 0 0 0 0 0 0 0 0 0 0 0 0 0 0 0 0 0 0 0
0 0 0 0 0 0 0 0 0 0 0 0 0 0 0 0 0 0 0 0 0 0 0 0 0 0 0 0 0 0 0 0 0 0 0 0 0 0 0 0 0 0 0 0
0 0 0 0 0 0 0 0 0 0 0 0 0 0 0 0 0 0 0 0 0 0 0 0 0 0 0 0 0 0 0 0 0 0 0 0 0 0 0 0 0 0 0 0
Wind_Speed
4 4 3 5 7 7 4 1 1 1 1 5 7 7 8 8 9 9 9 8 8 7 5 5 6 5 5 4 2 1 0 1 2 2 2 3 3 3 3 3 3 3 3 3
4 2 2 6 10 8 6 4 2 3 3 6 6 6 7 8 9 9 9 8 8 7 7 6 5 5 5 4 3 2 1 0 1 2 2 3 3 3 3 3 2 3 3 3
3 4 3 5 7 6 5 5 4 4 6 8 8 8 7 7 8 8 9 9 8 7 6 6 5 5 4 4 2 1 1 1 1 1 2 2 2 3 3 2 2 2 3 3
2 3 1 1 4 5 3 5 8 7 8 8 8 7 5 5 7 9 10 10 10 8 7 7 6 5 4 3 2 1 1 2 1 1 1 1 2 2 2 2 2 2 2 2
0 1 1 3 6 6 3 2 7 8 10 11 11 7 4 7 8 9 9 9 8 8 7 6 6 5 4 4 3 2 2 1 1 0 0 1 1 2 1 2 1 1 1 2
1 0 1 4 9 9 2 2 7 9 9 10 10 6 6 10 11 11 10 8 8 7 6 5 6 5 3 3 3 3 2 2 1 0 1 1 1 1 1 2 2 1 1 2
1 0 2 5 9 6 3 5 9 8 8 8 6 5 9 11 10 10 9 9 8 7 6 5 6 4 3 3 4 4 3 2 1 1 0 1 1 1 1 2 2 1 1 1
1 0 4 6 5 3 3 6 7 7 7 7 8 8 9 9 9 9 9 9 7 6 6 5 5 4 3 4 4 4 3 3 2 2 1 0 1 0 1 2 2 2 1 1
2 3 3 3 2 3 4 6 6 6 8 8 9 9 9 9 8 8 8 8 6 6 6 5 5 4 3 4 4 3 3 3 2 2 1 1 0 1 1 1 1 1 1 1
1 2 3 3 3 5 5 5 6 7 8 8 8 9 9 9 8 8 8 7 6 6 6 6 6 5 4 4 4 3 3 3 2 2 2 2 1 0 0 1 1 2 2 1
2 4 4 3 5 6 7 7 7 7 7 7 8 8 8 8 8 7 7 7 6 6 6 6 6 6 5 5 4 3 3 2 3 2 2 2 2 1 1 1 1 2 2 2
3 3 3 6 6 7 7 8 8 8 8 8 7 8 8 7 6 6 6 6 6 6 6 6 6 6 6 5 4 3 3 3 2 2 2 1 1 3 4 2 2 1 1 1
3 4 4 5 6 6 6 7 7 7 7 8 7 7 7 7 6 6 6 7 6 6 6 6 6 6 6 6 5 4 3 3 2 2 2 2 1 1 2 3 4 3 2 1
2 3 3 4 6 6 7 7 7 6 6 6 7 7 7 6 7 7 7 7 7 6 6 6 5 6 6 5 5 5 4 4 3 2 2 1 1 1 1 1 2 2 2 2
4 3 4 5 5 6 6 6 7 7 7 7 7 7 7 7 7 7 7 7 7 6 6 6 6 7 6 6 5 5 4 3 2 2 2 2 1 1 1 1 1 1 1 2
5 4 3 4 6 6 7 7 7 7 7 7 7 7 7 7 6 6 7 7 6 7 7 7 6 6 6 6 5 4 3 5 4 2 2 2 2 1 1 1 1 1 1 2
4 5 5 6 6 6 6 6 6 7 7 7 7 7 7 7 6 7 7 7 6 6 6 6 6 6 6 5 4 3 3 3 5 3 2 2 2 2 2 1 1 2 2 2
3 4 4 4 5 6 6 6 6 6 6 7 7 6 6 7 7 7 7 7 6 6 6 7 6 6 6 5 4 3 3 3 3 3 2 2 2 2 2 2 2 2 2 3
4 4 4 5 4 4 5 5 6 6 6 6 6 6 6 6 6 6 6 6 6 7 7 8 10 7 6 6 6 3 3 3 3 3 2 3 3 2 2 2 2 2 2 2
4 4 4 4 4 4 4 5 5 5 5 5 5 5 6 6 6 6 6 5 4 5 6 8 7 5 5 5 6 3 3 3 3 3 3 2 2 2 2 2 2 2 2 2
5 4 4 4 5 5 4 5 4 5 6 5 5 5 6 6 6 6 5 5 5 6 7 8 5 5 5 5 6 3 3 3 3 2 2 2 2 2 2 2 2 2 2 2
4 4 4 4 4 5 5 4 4 5 5 5 5 5 6 6 6 6 5 4 6 10 7 4 4 6 7 7 3 3 3 3 3 2 2 2 2 2 2 2 2 2 2 2
3 3 4 4 4 5 5 4 4 4 5 6 6 6 5 5 4 5 5 5 5 10 7 4 7 10 10 5 3 3 3 3 3 3 2 2 2 2 2 2 2 2 2 2
3 3 4 4 4 4 5 5 5 4 4 5 5 5 5 5 4 3 4 8 11 11 6 7 10 10 8 3 3 3 3 3 3 3 3 3 2 2 2 2 2 2 2 3
3 3 3 4 4 4 5 5 5 5 5 4 5 5 4 3 4 5 5 6 10 10 6 7 10 10 6 3 3 3 3 3 3 3 2 3 3 2 2 2 2 3 3 3
3 3 3 3 3 3 3 4 4 4 5 5 5 4 4 4 4 4 4 5 7 8 6 5 5 6 4 4 4 4 3 4 4 4 3 3 3 3 3 3 3 3 3 3
3 3 3 3 3 3 3 3 4 5 5 5 6 5 5 5 4 5 5 5 5 5 5 4 4 4 4 4 4 4 4 3 3 4 4 3 3 3 3 3 3 3 3 3
Wind_Direction
276 288 332 354 351 0 16 345 200 241 5 350 347 342 346 351 357 3 5 3 0 359 357 2 5 5 3 355 360 15 59 174 194 193 179 167 168 176 174 177 182 180 179 182
301 307 18 21 10 11 9 2 11 16 350 345 342 353 357 356 357 355 351 349 348 350 350 349 350 349 347 347 350 12 26 263 204 175 169 170 173 168 167 177 179 174 182 186
294 314 16 23 1 7 17 20 16 351 334 342 356 355 352 348 350 348 344 342 340 336 332 331 333 335 334 330 341 21 17 0 13 165 168 171 165 159 170 179 177 184 196 197
298 11 54 250 8 360 8 36 28 8 349 345 336 328 345 360 357 349 344 339 333 331 332 328 330 334 336 335 344 31 39 18 8 36 153 156 153 162 170 169 173 185 197 206
350 316 292 331 350 344 321 340 14 358 346 343 337 337 0 8 357 342 333 328 325 325 323 323 331 334 342 344 351 16 25 6 340 331 152 163 168 173 166 162 168 184 192 195
50 36 301 308 318 317 288 289 357 350 339 339 346 345 324 342 339 336 334 334 332 329 328 333 334 335 347 342 347 346 338 324 320 283 173 179 191 182 168 165 177 174 188 202
15 236 273 312 323 356 54 301 325 333 332 335 331 296 303 319 323 327 330 332 332 330 333 334 332 336 343 340 333 328 329 330 340 329 223 188 175 176 169 164 155 158 188 222
6 3 283 332 4 22 295 307 323 326 328 325 316 313 319 322 325 328 330 332 333 333 335 335 336 342 343 333 329 339 348 354 353 349 353 61 125 156 161 160 155 164 176 220
204 214 274 331 348 331 335 326 327 326 324 323 322 321 323 324 325 326 329 331 335 337 336 340 342 345 337 332 340 352 3 359 352 353 3 20 113 158 157 157 161 176 181 201
310 292 322 331 346 347 339 328 323 323 322 326 324 324 324 326 330 333 333 336 342 345 344 344 349 354 349 343 347 358 2 354 352 7 16 18 14 2 190 193 190 195 200 208
292 306 325 328 344 338 335 334 330 329 328 327 326 326 326 328 330 332 334 340 348 349 348 346 350 355 354 350 356 3 1 358 359 4 7 9 6 349 313 280 238 214 211 205
261 284 288 293 315 330 330 329 328 328 329 330 328 323 325 326 328 331 337 342 346 349 350 350 353 355 354 351 356 3 4 4 2 358 359 4 18 13 9 352 358 339 297 254
257 293 283 289 312 328 325 323 325 327 326 327 329 328 330 330 332 338 342 344 345 346 348 350 355 357 354 353 358 5 4 354 353 355 354 356 0 21 10 16 30 32 22 11
307 325 310 316 315 323 324 324 325 327 333 334 331 333 333 333 336 342 344 342 342 346 349 350 353 353 351 352 357 1 3 357 353 347 340 340 336 334 325 345 360 1 11 22
318 312 287 302 316 326 329 333 337 339 339 341 338 338 338 337 335 334 336 340 345 352 352 352 355 351 348 351 355 355 354 353 353 348 343 341 339 343 341 344 344 340 353 4
312 316 317 326 328 332 337 341 340 335 336 337 338 338 335 331 330 335 342 349 354 353 349 350 350 344 343 348 351 353 355 353 351 349 350 352 352 356 352 348 343 345 351 341
326 327 327 328 327 327 330 330 330 330 333 335 335 335 337 338 342 344 345 346 347 344 344 348 343 341 347 350 349 347 347 350 353 354 355 351 346 343 341 342 342 343 333 323
289 292 300 305 313 320 326 332 334 334 334 330 332 338 340 342 339 335 335 339 346 350 350 347 343 346 352 352 350 347 347 347 347 349 348 348 347 347 346 344 341 337 333 339
317 315 319 322 323 322 324 328 330 330 330 334 338 338 336 335 332 334 338 345 347 345 342 340 345 353 351 348 348 348 349 349 351 351 349 350 355 356 355 348 341 334 333 340
331 333 333 332 335 333 326 326 327 329 330 331 333 335 337 336 336 336 339 340 336 325 324 333 342 344 343 341 348 355 354 351 350 347 347 348 347 347 344 338 336 335 337 338
326 329 331 331 329 329 325 325 328 327 327 331 332 329 327 327 331 334 336 335 334 331 333 339 343 336 336 341 352 358 350 345 345 343 341 339 336 336 335 335 334 332 333 336
314 318 320 323 324 324 324 326 326 325 328 330 328 326 327 330 332 332 328 317 323 331 336 332 331 335 342 348 355 352 343 339 339 338 337 331 327 325 325 327 326 326 330 331
307 310 314 315 316 314 319 325 325 324 325 326 327 326 324 320 322 325 325 328 326 331 336 331 333 338 343 353 351 343 338 336 333 330 327 324 320 317 316 317 318 320 319 319
308 312 312 313 317 322 326 324 322 320 314 311 316 317 319 320 319 312 305 320 330 331 332 331 337 340 347 356 345 336 330 327 324 320 318 317 316 314 309 307 308 308 310 313
309 307 311 319 324 320 317 318 319 319 319 319 320 322 321 314 310 314 316 319 327 333 333 335 340 344 350 341 335 328 322 317 314 314 309 308 307 305 302 302 301 300 302 304
306 306 303 299 298 303 311 318 320 321 323 324 323 322 321 317 312 312 314 320 326 334 336 331 332 336 335 331 327 323 319 319 322 320 312 306 302 299 298 299 299 296 293 291
311 309 311 314 317 318 315 314 315 318 320 317 315 319 322 323 322 323 323 324 326 328 327 327 327 327 324 322 321 319 315 313 311 309 305 300 297 293 292 291 290 288 287 286